| time (UTC) | temp C | wind direction | speed KPH | gust KPH | rain 1hr cm | rain 24hr cm | rain mn cm | humidity % | barometer mb |
| 20260902041552 | 16 | 38 | 0.0 | 0.0 | 0.00 | 0.00 | 0.03 | 69 | 1005.3 |
| 20260902040035 | 16 | 71 | 1.6 | 0.0 | 0.00 | 0.00 | 0.03 | 68 | 1005.5 |
| 20260902034533 | 16 | 103 | 0.0 | 0.0 | 0.00 | 0.00 | 0.03 | 64 | 1005.5 |
| 20260902033014 | 17 | 103 | 0.0 | 0.0 | 0.00 | 0.00 | 0.03 | 62 | 1005.3 |
| 20260902031519 | 18 | 103 | 1.6 | 0.0 | 0.00 | 0.00 | 0.03 | 60 | 1005.3 |
| 20260902030057 | 18 | 98 | 1.6 | 0.0 | 0.00 | 0.00 | 0.03 | 60 | 1005.4 |
| 20260902024607 | 18 | 82 | 0.0 | 0.0 | 0.00 | 0.00 | 0.03 | 60 | 1005.4 |
| 20260902023040 | 18 | 82 | 3.2 | 0.0 | 0.00 | 0.00 | 0.03 | 60 | 1005.5 |
| 20260902021544 | 18 | 53 | 1.6 | 0.0 | 0.00 | 0.00 | 0.03 | 62 | 1005.5 |
| 20260902020019 | 18 | 22 | 0.0 | 0.0 | 0.00 | 0.00 | 0.03 | 64 | 1005.5 |
| 20260902014541 | 18 | 22 | 1.6 | 0.0 | 0.00 | 0.00 | 0.03 | 65 | 1005.5 |
| 20260902013001 | 18 | 22 | 0.0 | 0.0 | 0.00 | 0.00 | 0.03 | 65 | 1005.2 |
| 20260902011501 | 18 | 22 | 3.2 | 0.0 | 0.00 | 0.00 | 0.03 | 64 | 1005.3 |
| 20260902010049 | 18 | 21 | 4.8 | 0.0 | 0.00 | 0.00 | 0.03 | 64 | 1005.9 |
| 20260902004546 | 18 | 323 | 1.6 | 0.0 | 0.00 | 0.00 | 0.03 | 66 | 1005.9 |
| 20260902003045 | 18 | 55 | 6.4 | 0.0 | 0.00 | 0.00 | 0.03 | 67 | 1005.8 |
| 20260902001545 | 18 | 65 | 4.8 | 0.0 | 0.00 | 0.00 | 0.03 | 65 | 1006.1 |
| 20260902000046 | 18 | 65 | 9.7 | 0.0 | 0.00 | 0.00 | 0.03 | 64 | 1005.8 |
| 20260901234600 | 18 | 73 | 14.5 | 0.0 | 0.00 | 0.00 | 0.03 | 65 | 1005.8 |
| 20260901233052 | 18 | 62 | 11.3 | 0.0 | 0.00 | 0.00 | 0.03 | 62 | 1006.0 |
| 20260901231544 | 18 | 48 | 6.4 | 0.0 | 0.00 | 0.00 | 0.03 | 61 | 1006.2 |
| 20260901230049 | 18 | 346 | 1.6 | 0.0 | 0.00 | 0.00 | 0.03 | 63 | 1006.3 |
| 20260901224544 | 18 | 303 | 0.0 | 0.0 | 0.00 | 0.00 | 0.03 | 65 | 1006.9 |
| 20260901223023 | 18 | 303 | 6.4 | 0.0 | 0.00 | 0.00 | 0.03 | 64 | 1007.2 |
| 20260901221555 | 18 | 300 | 8.0 | 0.0 | 0.00 | 0.00 | 0.03 | 61 | 1007.4 |
| 20260901220012 | 18 | 292 | 6.4 | 0.0 | 0.00 | 0.00 | 0.00 | 58 | 1007.2 |
| 20260901214503 | 21 | 290 | 6.4 | 0.0 | 0.00 | 0.00 | 0.00 | 48 | 1007.4 |
| 20260901213047 | 21 | 305 | 8.0 | 0.0 | 0.00 | 0.00 | 0.00 | 48 | 1007.1 |
| 20260901211543 | 22 | 292 | 6.4 | 0.0 | 0.00 | 0.00 | 0.00 | 42 | 1007.2 |
| 20260901210026 | 23 | 307 | 0.0 | 0.0 | 0.00 | 0.00 | 0.00 | 41 | 1006.4 |
| 20260901204533 | 22 | 307 | 0.0 | 0.0 | 0.00 | 0.00 | 0.00 | 39 | 1006.4 |
| 20260901203009 | 22 | 307 | 0.0 | 0.0 | 0.00 | 0.00 | 0.00 | 39 | 1006.2 |
| 20260901201521 | 22 | 307 | 1.6 | 0.0 | 0.00 | 0.00 | 0.00 | 39 | 1006.1 |
| 20260901200106 | 23 | 308 | 6.4 | 0.0 | 0.00 | 0.00 | 0.00 | 38 | 1006.1 |
| 20260901194547 | 26 | 261 | 3.2 | 0.0 | 0.00 | 0.00 | 0.00 | 30 | 1005.9 |
| 20260901193057 | 27 | 267 | 4.8 | 0.0 | 0.00 | 0.00 | 0.00 | 23 | 1005.9 |
| 20260901191528 | 27 | 200 | 6.4 | 0.0 | 0.00 | 0.00 | 0.00 | 23 | 1005.9 |
| 20260901190031 | 26 | 293 | 4.8 | 0.0 | 0.00 | 0.00 | 0.00 | 26 | 1005.9 |
| 20260901184506 | 25 | 200 | 3.2 | 0.0 | 0.00 | 0.00 | 0.00 | 30 | 1006.0 |
| 20260901183005 | 25 | 203 | 8.0 | 0.0 | 0.00 | 0.00 | 0.00 | 29 | 1006.0 |
| 20260901181546 | 25 | 217 | 9.7 | 0.0 | 0.00 | 0.00 | 0.00 | 28 | 1005.8 |
| 20260901180045 | 26 | 175 | 4.8 | 0.0 | 0.00 | 0.00 | 0.00 | 29 | 1005.5 |
| 20260901174529 | 25 | 166 | 4.8 | 0.0 | 0.00 | 0.00 | 0.00 | 29 | 1005.5 |
| 20260901173022 | 24 | 168 | 1.6 | 0.0 | 0.00 | 0.00 | 0.00 | 32 | 1005.5 |
| 20260901171502 | 23 | 168 | 3.2 | 0.0 | 0.00 | 0.00 | 0.00 | 34 | 1005.5 |
| 20260901170100 | 22 | 217 | 0.0 | 0.0 | 0.00 | 0.00 | 0.00 | 36 | 1005.6 |
| 20260901164537 | 21 | 219 | 1.6 | 0.0 | 0.00 | 0.00 | 0.00 | 39 | 1005.8 |
| 20260901163034 | 20 | 219 | 1.6 | 0.0 | 0.00 | 0.00 | 0.00 | 43 | 1005.9 |
| 20260901161524 | 18 | 221 | 0.0 | 0.0 | 0.00 | 0.00 | 0.00 | 48 | 1005.9 |
| 20260901160015 | 17 | 221 | 0.0 | 0.0 | 0.00 | 0.00 | 0.00 | 53 | 1005.7 |
| 20260901154546 | 15 | 221 | 0.0 | 0.0 | 0.00 | 0.00 | 0.00 | 58 | 1005.8 |
| 20260901153042 | 15 | 221 | 0.0 | 0.0 | 0.00 | 0.00 | 0.00 | 61 | 1006.1 |
| 20260901151522 | 14 | 214 | 1.6 | 0.0 | 0.00 | 0.00 | 0.00 | 65 | 1006.1 |
| 20260901150018 | 12 | 5 | 0.0 | 0.0 | 0.00 | 0.00 | 0.00 | 71 | 1005.9 |
| 20260901144557 | 11 | 5 | 0.0 | 0.0 | 0.00 | 0.00 | 0.00 | 70 | 1006.4 |
| 20260901143057 | 11 | 5 | 0.0 | 0.0 | 0.00 | 0.00 | 0.00 | 76 | 1006.5 |
| 20260901141536 | 8 | 5 | 0.0 | 0.0 | 0.00 | 0.00 | 0.00 | 81 | 1006.6 |
| 20260901140030 | 7 | 5 | 0.0 | 0.0 | 0.00 | 0.00 | 0.00 | 81 | 1007.1 |
| 20260901134520 | 6 | 5 | 0.0 | 0.0 | 0.00 | 0.00 | 0.00 | 81 | 1007.0 |
| 20260901133013 | 6 | 5 | 0.0 | 0.0 | 0.00 | 0.00 | 0.00 | 79 | 1007.1 |
| 20260901131554 | 6 | 5 | 0.0 | 0.0 | 0.00 | 0.00 | 0.00 | 79 | 1007.0 |
| 20260901130107 | 6 | 5 | 0.0 | 0.0 | 0.00 | 0.00 | 0.00 | 78 | 1007.3 |
| 20260901124541 | 7 | 5 | 0.0 | 0.0 | 0.00 | 0.00 | 0.00 | 78 | 1007.2 |
| 20260901123036 | 7 | 5 | 0.0 | 0.0 | 0.00 | 0.00 | 0.00 | 78 | 1007.2 |
| 20260901121518 | 7 | 5 | 0.0 | 0.0 | 0.00 | 0.00 | 0.00 | 77 | 1007.2 |
| 20260901120016 | 7 | 5 | 0.0 | 0.0 | 0.00 | 0.00 | 0.00 | 77 | 1007.3 |
| 20260901114600 | 7 | 5 | 0.0 | 0.0 | 0.00 | 0.00 | 0.00 | 76 | 1007.5 |
| 20260901113130 | 8 | 5 | 0.0 | 0.0 | 0.00 | 0.00 | 0.00 | 76 | 1007.5 |
| 20260901111541 | 8 | 5 | 0.0 | 0.0 | 0.00 | 0.00 | 0.00 | 77 | 1007.7 |
| 20260901110052 | 7 | 5 | 0.0 | 0.0 | 0.00 | 0.00 | 0.00 | 77 | 1007.7 |
| 20260901104522 | 7 | 5 | 0.0 | 0.0 | 0.00 | 0.00 | 0.00 | 77 | 1007.7 |
| 20260901103022 | 7 | 5 | 0.0 | 0.0 | 0.00 | 0.00 | 0.00 | 77 | 1007.6 |
| 20260901101504 | 7 | 5 | 0.0 | 0.0 | 0.00 | 0.00 | 0.00 | 77 | 1007.4 |
| 20260901100007 | 7 | 5 | 0.0 | 0.0 | 0.00 | 0.00 | 0.00 | 77 | 1007.3 |
| 20260901094547 | 7 | 5 | 0.0 | 0.0 | 0.00 | 0.00 | 0.00 | 77 | 1007.5 |
| 20260901093045 | 7 | 5 | 0.0 | 0.0 | 0.00 | 0.00 | 0.00 | 74 | 1007.5 |
| 20260901091528 | 8 | 5 | 0.0 | 0.0 | 0.00 | 0.00 | 0.00 | 74 | 1007.3 |
| 20260901090030 | 7 | 5 | 0.0 | 0.0 | 0.00 | 0.00 | 0.00 | 73 | 1007.4 |
| 20260901084524 | 8 | 5 | 0.0 | 0.0 | 0.00 | 0.00 | 0.00 | 71 | 1007.6 |
| 20260901083009 | 9 | 5 | 0.0 | 0.0 | 0.00 | 0.00 | 0.00 | 72 | 1007.6 |
| 20260901081554 | 9 | 5 | 0.0 | 0.0 | 0.00 | 0.00 | 0.00 | 71 | 1007.6 |
| 20260901080048 | 9 | 5 | 0.0 | 0.0 | 0.00 | 0.00 | 0.00 | 71 | 1007.8 |
| 20260901074531 | 10 | 5 | 0.0 | 0.0 | 0.00 | 0.00 | 0.00 | 69 | 1007.9 |
| 20260901073032 | 10 | 5 | 0.0 | 0.0 | 0.00 | 0.00 | 0.00 | 68 | 1007.8 |
| 20260901071512 | 10 | 5 | 0.0 | 0.0 | 0.00 | 0.00 | 0.00 | 66 | 1008.0 |
| 20260901070012 | 11 | 5 | 0.0 | 0.0 | 0.00 | 0.00 | 0.00 | 66 | 1008.1 |
| 20260901064553 | 11 | 5 | 0.0 | 0.0 | 0.00 | 0.00 | 0.00 | 64 | 1008.1 |
| 20260901063052 | 12 | 5 | 0.0 | 0.0 | 0.00 | 0.00 | 0.00 | 62 | 1008.2 |
| 20260901061534 | 12 | 5 | 0.0 | 0.0 | 0.00 | 0.00 | 0.00 | 62 | 1008.3 |
| 20260901060034 | 12 | 5 | 0.0 | 0.0 | 0.00 | 0.00 | 0.00 | 61 | 1008.3 |
| 20260901054515 | 13 | 5 | 0.0 | 0.0 | 0.00 | 0.00 | 0.00 | 59 | 1008.4 |
| 20260901053018 | 13 | 5 | 0.0 | 0.0 | 0.00 | 0.00 | 0.00 | 58 | 1008.4 |
| 20260901051559 | 14 | 5 | 0.0 | 0.0 | 0.00 | 0.00 | 0.00 | 56 | 1008.5 |
| 20260901050055 | 14 | 5 | 0.0 | 0.0 | 0.00 | 0.00 | 0.00 | 55 | 1008.6 |
| 20260901044559 | 15 | 5 | 0.0 | 0.0 | 0.00 | 0.00 | 0.00 | 52 | 1008.7 |
| 20260901043040 | 16 | 5 | 0.0 | 0.0 | 0.00 | 0.00 | 0.00 | 49 | 1008.7 |